Southern Pines, NC

5:21 PM EDT on April 21, 2018 (GMT -0400)
Moore County

Weather History for KSOP - March, 2014

Change the Weather History Date:

Thursday, March 13, 2014

  Actual Average Record
Temperature  
Mean Temperature 37 °F -  
Max Temperature 48 °F 58 °F 80 °F (2006)
Min Temperature 26 °F 38 °F 15 °F (1998)
Degree Days  
Heating Degree Days 28    
Moisture  
Dew Point 11 °F    
Average Humidity 32    
Maximum Humidity 59    
Minimum Humidity 16    
Precipitation  
Precipitation 0.00 in - - ()
Sea Level Pressure  
Sea Level Pressure 29.98 in    
Wind  
Wind Speed 8 mph (NW)    
Max Wind Speed 15 mph    
Max Gust Speed 29 mph    
Visibility 10 miles    
Events      
Averages and records for this station are not official NWS values.
T = Trace of Precipitation, MM = Missing Value Source: NWS Daily Summary

Daily Weather History Graph

Daily Weather History Graph

Search for Another Location

Airport or City:

Astronomy

Mar. 13, 2014 Rise Set
Actual Time 7:31 AM EDT 7:23 PM EDT
Civil Twilight 7:05 AM EDT 7:48 PM EDT
Nautical Twilight 6:36 AM EDT 8:18 PM EDT
Astronomical Twilight 6:06 AM EDT 8:47 PM EDT
Moon 4:52 PM EDT (3/13) 5:31 AM EDT (3/13)
Length of Visible Light 12h 43m
Length of Day
11h 52m
Waxing Gibbous, 91% of the Moon is Illuminated
Mar 13
Waxing Gibbous
Mar 16
Full
Mar 23
Last Quarter
Mar 30
New
Apr 7
First Quarter

Hourly Weather History & Observations

Time (EDT) Temp. Windchill Dew Point Humidity Pressure Visibility Wind Dir Wind Speed Gust Speed Precip Events Conditions
12:15 AM 44.6 °F 37.8 °F 21.2 °F 39% 29.67 in 10.0 mi NW 15.0 mph 28.8 mph N/A   Clear
12:35 AM 44.6 °F 39.7 °F 21.2 °F 39% 29.68 in 10.0 mi NNW 9.2 mph 20.7 mph N/A   Clear
12:55 AM 42.8 °F 37.5 °F 21.2 °F 42% 29.69 in 10.0 mi NW 9.2 mph - N/A   Clear
1:15 AM 42.8 °F 38.6 °F 21.2 °F 42% 29.70 in 10.0 mi NNW 6.9 mph 18.4 mph N/A   Clear
1:35 AM 42.8 °F 38.0 °F 21.2 °F 42% 29.71 in 10.0 mi NW 8.1 mph 17.3 mph N/A   Clear
1:55 AM 42.8 °F 38.0 °F 19.4 °F 39% 29.72 in 10.0 mi NW 8.1 mph - N/A   Clear
2:15 AM 42.8 °F 38.0 °F 19.4 °F 39% 29.73 in 10.0 mi NW 8.1 mph - N/A   Scattered Clouds
2:35 AM 41.0 °F 37.1 °F 21.2 °F 45% 29.73 in 10.0 mi NW 5.8 mph - N/A   Mostly Cloudy
2:55 AM 41.0 °F 36.4 °F 21.2 °F 45% 29.74 in 10.0 mi NW 6.9 mph - N/A   Scattered Clouds
3:15 AM 41.0 °F 35.8 °F 19.4 °F 42% 29.75 in 10.0 mi NW 8.1 mph 24.2 mph N/A   Clear
3:35 AM 39.2 °F 33.6 °F 19.4 °F 45% 29.76 in 10.0 mi NW 8.1 mph - N/A   Partly Cloudy
3:55 AM 39.2 °F 33.6 °F 17.6 °F 42% 29.76 in 10.0 mi NW 8.1 mph 17.3 mph N/A   Clear
4:15 AM 39.2 °F 33.0 °F 15.8 °F 39% 29.77 in 10.0 mi NW 9.2 mph 18.4 mph N/A   Clear
4:35 AM 39.2 °F 32.0 °F 14.0 °F 36% 29.78 in 10.0 mi NW 11.5 mph 18.4 mph N/A   Clear
4:55 AM 37.4 °F 31.4 °F 14.0 °F 38% 29.80 in 10.0 mi NW 8.1 mph 19.6 mph N/A   Clear
5:15 AM 37.4 °F 31.4 °F 14.0 °F 38% 29.81 in 10.0 mi NNW 8.1 mph 18.4 mph N/A   Clear
5:35 AM 35.6 °F 29.2 °F 12.2 °F 38% 29.82 in 10.0 mi NNW 8.1 mph - N/A   Clear
5:55 AM 35.6 °F 31.7 °F 12.2 °F 38% 29.84 in 10.0 mi NNW 4.6 mph - N/A   Partly Cloudy
6:15 AM 35.6 °F 31.7 °F 12.2 °F 38% 29.85 in 10.0 mi NNW 4.6 mph - N/A   Partly Cloudy
6:35 AM 35.6 °F 30.7 °F 12.2 °F 38% 29.86 in 10.0 mi NW 5.8 mph - N/A   Clear
6:55 AM 35.6 °F 29.9 °F 12.2 °F 38% 29.87 in 10.0 mi NW 6.9 mph - N/A   Clear
7:15 AM 33.8 °F 28.6 °F 12.2 °F 41% 29.89 in 10.0 mi NW 5.8 mph - N/A   Clear
7:35 AM 33.8 °F 27.0 °F 12.2 °F 41% 29.90 in 10.0 mi NW 8.1 mph - N/A   Clear
7:55 AM 33.8 °F 28.6 °F 12.2 °F 41% 29.91 in 10.0 mi NW 5.8 mph - N/A   Clear
8:15 AM 35.6 °F 30.7 °F 12.2 °F 38% 29.93 in 10.0 mi NW 5.8 mph - N/A   Clear
8:35 AM 35.6 °F 29.2 °F 14.0 °F 41% 29.95 in 10.0 mi NW 8.1 mph - N/A   Clear
8:55 AM 37.4 °F 31.4 °F 12.2 °F 36% 29.96 in 10.0 mi NNW 8.1 mph 17.3 mph N/A   Clear
9:15 AM 37.4 °F 30.3 °F 10.4 °F 33% 29.97 in 10.0 mi NW 10.4 mph 20.7 mph N/A   Clear
9:35 AM 37.4 °F 29.3 °F 10.4 °F 33% 29.97 in 10.0 mi WNW 12.7 mph 23.0 mph N/A   Clear
9:55 AM 39.2 °F 31.2 °F 10.4 °F 31% 29.98 in 10.0 mi WNW 13.8 mph 24.2 mph N/A   Clear
10:15 AM 39.2 °F 35.0 °F 10.4 °F 31% 29.99 in 10.0 mi NNW 5.8 mph 25.3 mph N/A   Clear
10:35 AM 39.2 °F 32.5 °F 10.4 °F 31% 29.99 in 10.0 mi North 10.4 mph 18.4 mph N/A   Clear
10:55 AM 39.2 °F 33.0 °F 8.6 °F 28% 30.00 in 10.0 mi NNW 9.2 mph 25.3 mph N/A   Clear
11:15 AM 41.0 °F 34.3 °F 8.6 °F 26% 30.01 in 10.0 mi NNW 11.5 mph 21.9 mph N/A   Clear
11:35 AM 42.8 °F 36.2 °F 8.6 °F 25% 30.02 in 10.0 mi NNW 12.7 mph 21.9 mph N/A   Clear
11:55 AM 42.8 °F 36.2 °F 6.8 °F 23% 30.02 in 10.0 mi NNW 12.7 mph 21.9 mph N/A   Clear
12:15 PM 42.8 °F 37.5 °F 8.6 °F 25% 30.03 in 10.0 mi NNW 9.2 mph 20.7 mph N/A   Clear
12:35 PM 44.6 °F 37.8 °F 8.6 °F 23% 30.04 in 10.0 mi NW 15.0 mph 24.2 mph N/A   Clear
12:55 PM 44.6 °F 38.8 °F 8.6 °F 23% 30.04 in 10.0 mi WNW 11.5 mph 18.4 mph N/A   Clear
1:15 PM 44.6 °F 40.7 °F 6.8 °F 21% 30.05 in 10.0 mi NW 6.9 mph 24.2 mph N/A   Clear
1:35 PM 44.6 °F 38.4 °F 6.8 °F 21% 30.05 in 10.0 mi WNW 12.7 mph 20.7 mph N/A   Clear
1:55 PM 44.6 °F 38.8 °F 6.8 °F 21% 30.04 in 10.0 mi NW 11.5 mph 20.7 mph N/A   Clear
2:15 PM 44.6 °F 40.2 °F 8.6 °F 23% 30.03 in 10.0 mi NNW 8.1 mph 21.9 mph N/A   Clear
2:35 PM 46.4 °F 41.5 °F 8.6 °F 22% 30.03 in 10.0 mi NNW 10.4 mph 19.6 mph N/A   Clear
2:55 PM 46.4 °F 45.2 °F 6.8 °F 20% 30.04 in 10.0 mi NNW 3.5 mph 21.9 mph N/A   Clear
3:15 PM 48.2 °F - 6.8 °F 19% 30.04 in 10.0 mi NNW 12.7 mph 20.7 mph N/A   Clear
3:35 PM 48.2 °F - 5.0 °F 17% 30.04 in 10.0 mi WNW 8.1 mph - N/A   Clear
3:55 PM 46.4 °F 41.5 °F 3.2 °F 17% 30.05 in 10.0 mi NNW 10.4 mph 20.7 mph N/A   Clear
4:15 PM 46.4 °F 40.4 °F 3.2 °F 17% 30.06 in 10.0 mi NNW 13.8 mph 23.0 mph N/A   Clear
4:35 PM 46.4 °F 42.4 °F 3.2 °F 17% 30.06 in 10.0 mi NNW 8.1 mph 21.9 mph N/A   Clear
4:55 PM 46.4 °F 41.9 °F 1.4 °F 16% 30.06 in 10.0 mi NNW 9.2 mph 18.4 mph N/A   Clear
5:15 PM 46.4 °F 42.9 °F 1.4 °F 16% 30.07 in 10.0 mi NW 6.9 mph 18.4 mph N/A   Clear
5:35 PM 46.4 °F - 1.4 °F 16% 30.08 in 10.0 mi Calm Calm - N/A   Clear
5:55 PM 46.4 °F 42.4 °F 1.4 °F 16% 30.09 in 10.0 mi NW 8.1 mph 19.6 mph N/A   Clear
6:15 PM 46.4 °F 45.2 °F 1.4 °F 16% 30.10 in 10.0 mi WNW 3.5 mph - N/A   Clear
6:35 PM 46.4 °F - 3.2 °F 17% 30.12 in 10.0 mi Calm Calm - N/A   Clear
6:55 PM 44.6 °F 42.2 °F 3.2 °F 18% 30.13 in 10.0 mi NW 4.6 mph - N/A   Clear
7:15 PM 42.8 °F 41.1 °F 3.2 °F 19% 30.14 in 10.0 mi NW 3.5 mph - N/A   Clear
7:35 PM 42.8 °F 40.1 °F 5.0 °F 21% 30.14 in 10.0 mi WNW 4.6 mph - N/A   Clear
7:55 PM 39.2 °F - 6.8 °F 26% 30.15 in 10.0 mi Calm Calm - N/A   Clear
8:15 PM 35.6 °F - 6.8 °F 30% 30.16 in 10.0 mi Calm Calm - N/A   Clear
8:35 PM 35.6 °F - 10.4 °F 35% 30.17 in 10.0 mi Calm Calm - N/A   Clear
8:55 PM 35.6 °F - 12.2 °F 38% 30.18 in 10.0 mi Calm Calm - N/A   Clear
9:15 PM 32.0 °F 28.7 °F 10.4 °F 41% 30.18 in 10.0 mi WNW 3.5 mph - N/A   Clear
9:35 PM 32.0 °F - 12.2 °F 44% 30.19 in 10.0 mi Calm Calm - N/A   Clear
9:55 PM 30.2 °F 25.4 °F 8.6 °F 40% 30.20 in 10.0 mi WNW 4.6 mph - N/A   Clear
10:15 PM 30.2 °F - 12.2 °F 47% 30.20 in 10.0 mi Calm Calm - N/A   Clear
10:35 PM 30.2 °F 26.7 °F 10.4 °F 44% 30.21 in 10.0 mi WNW 3.5 mph - N/A   Clear
10:55 PM 32.0 °F - 10.4 °F 41% 30.21 in 10.0 mi Calm Calm - N/A   Clear
11:15 PM 28.4 °F - 15.8 °F 59% 30.22 in 10.0 mi Calm Calm - N/A   Clear
11:35 PM 26.6 °F - 6.8 °F 43% 30.22 in 10.0 mi Calm Calm - N/A   Clear
11:55 PM 26.6 °F - 10.4 °F 51% 30.23 in 10.0 mi Calm Calm - N/A   Clear